• Em Portugal
  • Lista de países
  • Para 7 dias
  • Temperatura da água
  • Mapas de satélite
  • Mapa do tempo
  • Widgets de tempo
  • user-avatar
    Iniciar Sessão

    Previsão horária em Gwatemala

    Hoje, 13 Dezembro, Quarta-feira

    Tempo Temperatura Precipitação Vento Pressão Humidade
    00:00 +13°C° 0 mm 2 m/s 638 mmHg 84%
    01:00 +12°C° 0 mm 2 m/s 638 mmHg 84%
    02:00 +12°C° 0 mm 2 m/s 638 mmHg 84%
    03:00 +12°C° 0 mm 2 m/s 637 mmHg 84%
    04:00 +12°C° 0 mm 2 m/s 638 mmHg 84%
    05:00 +12°C° 0 mm 2 m/s 638 mmHg 84%
    06:00 +10°C° 0 mm 2 m/s 638 mmHg 84%
    07:00 +13°C° 0 mm 2 m/s 639 mmHg 77%
    08:00 +15°C° 0 mm 2 m/s 640 mmHg 70%
    09:00 +17°C° 0 mm 2 m/s 641 mmHg 62%
    10:00 +19°C° 0 mm 2 m/s 641 mmHg 57%
    11:00 +21°C° 0 mm 2 m/s 641 mmHg 51%
    12:00 +23°C° 0 mm 2 m/s 641 mmHg 45%
    13:00 +23°C° 0 mm 2 m/s 641 mmHg 46%
    14:00 +23°C° 0 mm 2 m/s 640 mmHg 47%
    15:00 +23°C° 0 mm 2 m/s 640 mmHg 48%
    16:00 +20°C° 0 mm 2 m/s 639 mmHg 59%
    17:00 +18°C° 0 mm 1 m/s 638 mmHg 69%
    18:00 +15°C° 0 mm 1 m/s 637 mmHg 80%
    19:00 +14°C° 0 mm 1 m/s 637 mmHg 81%
    20:00 +13°C° 0 mm 1 m/s 638 mmHg 83%
    21:00 +13°C° 0 mm 1 m/s 638 mmHg 84%
    22:00 +13°C° 0 mm 1 m/s 638 mmHg 84%
    23:00 +12°C° 0 mm 1 m/s 637 mmHg 84%

    Amanhã, 14 Dezembro, Quinta-feira

    Tempo Temperatura Precipitação Vento Pressão Humidade
    00:00 +12°C° 0 mm 1 m/s 637 mmHg 85%
    01:00 +12°C° 0 mm 1 m/s 637 mmHg 85%
    02:00 +12°C° 0 mm 1 m/s 636 mmHg 86%
    03:00 +12°C° 0 mm 1 m/s 636 mmHg 87%
    04:00 +12°C° 0 mm 1 m/s 636 mmHg 86%
    05:00 +12°C° 0 mm 1 m/s 636 mmHg 86%
    06:00 +12°C° 0 mm 1 m/s 636 mmHg 86%
    07:00 +15°C° 0 mm 1 m/s 637 mmHg 75%
    08:00 +19°C° 0 mm 1 m/s 639 mmHg 64%
    09:00 +22°C° 0 mm 1 m/s 640 mmHg 53%
    10:00 +24°C° 0 mm 1 m/s 640 mmHg 48%
    11:00 +26°C° 0 mm 1 m/s 640 mmHg 43%
    12:00 +27°C° 0 mm 1 m/s 640 mmHg 37%
    13:00 +27°C° 0 mm 2 m/s 640 mmHg 38%
    14:00 +27°C° 0 mm 2 m/s 639 mmHg 39%
    15:00 +26°C° 0 mm 2 m/s 638 mmHg 40%
    16:00 +24°C° 0 mm 2 m/s 638 mmHg 51%
    17:00 +21°C° 0 mm 1 m/s 637 mmHg 62%
    18:00 +18°C° 0 mm 1 m/s 636 mmHg 73%
    19:00 +16°C° 0 mm 1 m/s 637 mmHg 77%
    20:00 +16°C° 0 mm 1 m/s 637 mmHg 81%
    21:00 +15°C° 0 mm 1 m/s 637 mmHg 85%
    22:00 +15°C° 0 mm 1 m/s 637 mmHg 86%
    23:00 +14°C° 0 mm 1 m/s 637 mmHg 86%

    Depois de amanhã, 15 Dezembro, Sexta-feira

    Tempo Temperatura Precipitação Vento Pressão Humidade
    00:00 +14°C° 0 mm 1 m/s 637 mmHg 86%
    01:00 +14°C° 0 mm 1 m/s 637 mmHg 86%
    02:00 +14°C° 0 mm 1 m/s 636 mmHg 86%
    03:00 +14°C° 0 mm 1 m/s 636 mmHg 85%
    04:00 +14°C° 0 mm 1 m/s 636 mmHg 85%
    05:00 +14°C° 0 mm 1 m/s 636 mmHg 85%
    06:00 +13°C° 0 mm 1 m/s 636 mmHg 85%
    07:00 +16°C° 0 mm 1 m/s 637 mmHg 75%
    08:00 +18°C° 0 mm 0 m/s 639 mmHg 65%
    09:00 +21°C° 0 mm 0 m/s 640 mmHg 55%
    10:00 +25°C° 0 mm 1 m/s 640 mmHg 51%
    11:00 +26°C° 0 mm 1 m/s 640 mmHg 47%
    12:00 +28°C° 0 mm 1 m/s 640 mmHg 42%
    13:00 +27°C° 0 mm 1 m/s 640 mmHg 45%
    14:00 +26°C° 0 mm 1 m/s 639 mmHg 49%
    15:00 +25°C° 0 mm 2 m/s 638 mmHg 52%
    16:00 +23°C° 0 mm 1 m/s 637 mmHg 62%
    17:00 +21°C° 0 mm 1 m/s 637 mmHg 71%
    18:00 +19°C° 0 mm 1 m/s 637 mmHg 81%
    19:00 +18°C° 0 mm 1 m/s 637 mmHg 83%
    20:00 +18°C° 0 mm 1 m/s 637 mmHg 86%
    21:00 +16°C° 0 mm 1 m/s 638 mmHg 89%
    22:00 +16°C° 0 mm 1 m/s 638 mmHg 89%
    23:00 +16°C° 0 mm 1 m/s 638 mmHg 89%

    16 Dezembro, Sábado

    Tempo Temperatura Precipitação Vento Pressão Humidade
    00:00 +16°C° 0 mm 1 m/s 638 mmHg 89%
    01:00 +16°C° 0 mm 1 m/s 638 mmHg 89%
    02:00 +16°C° 0 mm 1 m/s 637 mmHg 89%
    03:00 +16°C° 0 mm 1 m/s 637 mmHg 89%
    04:00 +16°C° 0 mm 1 m/s 637 mmHg 89%
    05:00 +16°C° 0 mm 1 m/s 637 mmHg 89%
    06:00 +16°C° 0 mm 1 m/s 637 mmHg 89%
    07:00 +18°C° 0 mm 1 m/s 638 mmHg 82%
    08:00 +19°C° 0 mm 2 m/s 639 mmHg 75%
    09:00 +21°C° 0 mm 2 m/s 640 mmHg 68%
    10:00 +23°C° 0 mm 2 m/s 640 mmHg 61%
    11:00 +25°C° 0 mm 2 m/s 640 mmHg 55%
    12:00 +26°C° 0 mm 2 m/s 640 mmHg 48%
    13:00 +26°C° 0 mm 2 m/s 640 mmHg 49%
    14:00 +25°C° 0 mm 2 m/s 639 mmHg 50%
    15:00 +25°C° 0 mm 2 m/s 638 mmHg 52%
    16:00 +23°C° 0 mm 1 m/s 638 mmHg 60%
    17:00 +21°C° 0 mm 1 m/s 637 mmHg 69%
    18:00 +19°C° 0 mm 1 m/s 637 mmHg 78%
    19:00 +18°C° 0 mm 1 m/s 637 mmHg 81%
    20:00 +18°C° 0 mm 1 m/s 638 mmHg 84%
    21:00 +16°C° 0 mm 1 m/s 638 mmHg 87%
    22:00 +16°C° 0 mm 1 m/s 638 mmHg 87%
    23:00 +16°C° 0 mm 1 m/s 638 mmHg 87%

    17 Dezembro, Domingo

    Tempo Temperatura Precipitação Vento Pressão Humidade
    00:00 +16°C° 0 mm 2 m/s 638 mmHg 88%
    01:00 +16°C° 0 mm 2 m/s 637 mmHg 88%
    02:00 +16°C° 0 mm 2 m/s 637 mmHg 88%
    03:00 +15°C° 0 mm 2 m/s 637 mmHg 88%
    04:00 +15°C° 0 mm 2 m/s 637 mmHg 88%
    05:00 +15°C° 0 mm 2 m/s 637 mmHg 88%
    06:00 +15°C° 0 mm 1 m/s 637 mmHg 88%
    07:00 +18°C° 0 mm 1 m/s 638 mmHg 80%
    08:00 +20°C° 0 mm 1 m/s 639 mmHg 72%
    09:00 +22°C° 0 mm 1 m/s 640 mmHg 64%
    10:00 +24°C° 0 mm 1 m/s 640 mmHg 54%
    11:00 +26°C° 0 mm 1 m/s 640 mmHg 44%
    12:00 +28°C° 0 mm 1 m/s 640 mmHg 34%
    13:00 +28°C° 0 mm 2 m/s 640 mmHg 35%
    14:00 +28°C° 0 mm 2 m/s 639 mmHg 36%
    15:00 +27°C° 0 mm 2 m/s 638 mmHg 37%
    16:00 +25°C° 0 mm 1 m/s 638 mmHg 48%
    17:00 +22°C° 0 mm 1 m/s 637 mmHg 60%
    18:00 +19°C° 0 mm 1 m/s 637 mmHg 72%
    19:00 +18°C° 0 mm 1 m/s 637 mmHg 75%
    20:00 +18°C° 0 mm 1 m/s 637 mmHg 78%
    21:00 +16°C° 0 mm 1 m/s 638 mmHg 82%
    22:00 +16°C° 0 mm 1 m/s 637 mmHg 82%
    23:00 +16°C° 0 mm 1 m/s 637 mmHg 83%

    18 Dezembro, Segunda-feira

    Tempo Temperatura Precipitação Vento Pressão Humidade
    00:00 +16°C° 0 mm 1 m/s 637 mmHg 84%
    01:00 +16°C° 0 mm 1 m/s 637 mmHg 85%
    02:00 +15°C° 0 mm 1 m/s 636 mmHg 86%
    03:00 +15°C° 0 mm 1 m/s 636 mmHg 86%
    04:00 +15°C° 0 mm 1 m/s 636 mmHg 87%
    05:00 +15°C° 0 mm 1 m/s 637 mmHg 87%
    06:00 +15°C° 0 mm 1 m/s 637 mmHg 88%
    07:00 +18°C° 0 mm 1 m/s 638 mmHg 79%
    08:00 +21°C° 0 mm 1 m/s 639 mmHg 71%
    09:00 +23°C° 0 mm 1 m/s 640 mmHg 62%
    10:00 +24°C° 0 mm 1 m/s 640 mmHg 57%
    11:00 +26°C° 0 mm 2 m/s 640 mmHg 52%
    12:00 +27°C° 0 mm 2 m/s 640 mmHg 46%
    13:00 +26°C° 0 mm 2 m/s 639 mmHg 49%
    14:00 +26°C° 0 mm 2 m/s 639 mmHg 51%
    15:00 +25°C° 0 mm 2 m/s 638 mmHg 53%
    16:00 +23°C° 0 mm 2 m/s 638 mmHg 61%
    17:00 +21°C° 0 mm 1 m/s 637 mmHg 69%
    18:00 +19°C° 0 mm 1 m/s 637 mmHg 77%
    19:00 +19°C° 0 mm 1 m/s 637 mmHg 80%
    20:00 +18°C° 0 mm 1 m/s 638 mmHg 83%
    21:00 +18°C° 0 mm 1 m/s 638 mmHg 86%
    22:00 +16°C° 0 mm 1 m/s 638 mmHg 86%
    23:00 +16°C° 0 mm 1 m/s 638 mmHg 87%
    Mostrar mais